PWSweather.com
Personal Weather Stations
Station Observations
KNCCHINA3
Red Tractor Trail, China Grove, NC 28023

Red Tractor TrailChina Grove, NC 28023

Lat: 35.59751, Lon: -80.60201

Elevation: 800

Station Type: Oregon Scientific WMR 968

http://www.joesweathergarage.com

High Low Average
Temperature 87.8°F31.0°C 48.6°F9.2°C 69.4°F20.8°C
Dew Point 54.2°F12.3°C 38.5°F3.6°C 46.2°F7.9°C
Winds 11.8 mph 19.0 kmh Calm Calm 4.0 mph S6.4 kmh S
Wind Gusts 17.4 mph28.0 kmh -- 8.0 mph12.9 kmh
Humidity 89% 22% 50%
Pressure 29.94 in1013.9 mb 29.71 in1006.1 mb -
Precipitation 0.00 in0.0 mm - -
Hour Temp Dew Point Humidity Winds Wind Gusts Pressure Precip Precip Rate Daily Precip Total
12:02 AM 52.2°F11.2°C 43.1°F6.2°C 71% Calm Calm -- 29.80 in1009.1 mb 0.00 in0.0 mm 0.00 in0.0 mm 0.00 in0.0 mm
12:07 AM 52.1°F11.2°C 43.4°F6.3°C 72% Calm Calm -- 29.83 in1010.2 mb 0.00 in0.0 mm 0.00 in0.0 mm 0.00 in0.0 mm
12:12 AM 51.7°F10.9°C 43.0°F6.1°C 72% Calm Calm -- 29.83 in1010.2 mb 0.00 in0.0 mm 0.00 in0.0 mm 0.00 in0.0 mm
12:17 AM 51.5°F10.8°C 43.1°F6.2°C 73% Calm Calm -- 29.83 in1010.2 mb 0.00 in0.0 mm 0.00 in0.0 mm 0.00 in0.0 mm
12:22 AM 51.2°F10.7°C 43.5°F6.4°C 75% Calm Calm -- 29.83 in1010.2 mb 0.00 in0.0 mm 0.00 in0.0 mm 0.00 in0.0 mm
12:27 AM 50.8°F10.4°C 43.5°F6.4°C 76% Calm Calm -- 29.83 in1010.2 mb 0.00 in0.0 mm 0.00 in0.0 mm 0.00 in0.0 mm
12:32 AM 50.4°F10.2°C 43.1°F6.2°C 76% Calm Calm -- 29.83 in1010.2 mb 0.00 in0.0 mm 0.00 in0.0 mm 0.00 in0.0 mm
12:37 AM 50.3°F10.2°C 43.7°F6.5°C 78% Calm Calm -- 29.80 in1009.1 mb 0.00 in0.0 mm 0.00 in0.0 mm 0.00 in0.0 mm
12:42 AM 50.1°F10.1°C 43.5°F6.4°C 78% Calm Calm -- 29.80 in1009.1 mb 0.00 in0.0 mm 0.00 in0.0 mm 0.00 in0.0 mm
12:47 AM 49.9°F9.9°C 42.9°F6.1°C 77% Calm Calm -- 29.80 in1009.1 mb 0.00 in0.0 mm 0.00 in0.0 mm 0.00 in0.0 mm
12:52 AM 49.7°F9.8°C 43.4°F6.3°C 79% Calm Calm -- 29.83 in1010.2 mb 0.00 in0.0 mm 0.00 in0.0 mm 0.00 in0.0 mm
12:57 AM 49.5°F9.7°C 43.5°F6.4°C 80% Calm Calm -- 29.83 in1010.2 mb 0.00 in0.0 mm 0.00 in0.0 mm 0.00 in0.0 mm
01:02 AM 49.4°F9.7°C 43.4°F6.3°C 80% Calm Calm -- 29.83 in1010.2 mb 0.00 in0.0 mm 0.00 in0.0 mm 0.00 in0.0 mm
01:07 AM 49.4°F9.7°C 43.4°F6.3°C 80% Calm Calm -- 29.80 in1009.1 mb 0.00 in0.0 mm 0.00 in0.0 mm 0.00 in0.0 mm
01:12 AM 49.2°F9.6°C 43.6°F6.4°C 81% Calm Calm -- 29.80 in1009.1 mb 0.00 in0.0 mm 0.00 in0.0 mm 0.00 in0.0 mm
01:17 AM 49.0°F9.4°C 44.0°F6.7°C 83% Calm Calm -- 29.80 in1009.1 mb 0.00 in0.0 mm 0.00 in0.0 mm 0.00 in0.0 mm
01:22 AM 48.8°F9.3°C 43.8°F6.6°C 83% Calm Calm -- 29.80 in1009.1 mb 0.00 in0.0 mm 0.00 in0.0 mm 0.00 in0.0 mm
01:28 AM 48.8°F9.3°C 44.1°F6.7°C 84% Calm Calm -- 29.80 in1009.1 mb 0.00 in0.0 mm 0.00 in0.0 mm 0.00 in0.0 mm
01:33 AM 48.6°F9.2°C 44.2°F6.8°C 85% Calm Calm -- 29.80 in1009.1 mb 0.00 in0.0 mm 0.00 in0.0 mm 0.00 in0.0 mm
01:41 AM 48.6°F9.2°C 44.2°F6.8°C 85% Calm Calm -- 29.80 in1009.1 mb 0.00 in0.0 mm 0.00 in0.0 mm 0.00 in0.0 mm
01:46 AM 49.0°F9.4°C 44.9°F7.2°C 86% Calm Calm -- 29.80 in1009.1 mb 0.00 in0.0 mm 0.00 in0.0 mm 0.00 in0.0 mm
01:51 AM 49.4°F9.7°C 45.0°F7.2°C 85% Calm Calm -- 29.80 in1009.1 mb 0.00 in0.0 mm 0.00 in0.0 mm 0.00 in0.0 mm
01:56 AM 49.5°F9.7°C 45.1°F7.3°C 85% Calm Calm -- 29.80 in1009.1 mb 0.00 in0.0 mm 0.00 in0.0 mm 0.00 in0.0 mm
02:00 AM 49.7°F9.8°C 45.3°F7.4°C 85% Calm Calm -- 29.80 in1009.1 mb 0.00 in0.0 mm 0.00 in0.0 mm 0.00 in0.0 mm
02:06 AM 50.1°F10.1°C 45.7°F7.6°C 85% Calm Calm -- 29.80 in1009.1 mb 0.00 in0.0 mm 0.00 in0.0 mm 0.00 in0.0 mm
02:11 AM 50.3°F10.2°C 45.9°F7.7°C 85% Calm Calm -- 29.80 in1009.1 mb 0.00 in0.0 mm 0.00 in0.0 mm 0.00 in0.0 mm
02:16 AM 50.6°F10.3°C 46.2°F7.9°C 85% Calm Calm -- 29.80 in1009.1 mb 0.00 in0.0 mm 0.00 in0.0 mm 0.00 in0.0 mm
02:21 AM 50.6°F10.3°C 45.9°F7.7°C 84% Calm Calm -- 29.80 in1009.1 mb 0.00 in0.0 mm 0.00 in0.0 mm 0.00 in0.0 mm
02:26 AM 50.6°F10.3°C 45.9°F7.7°C 84% Calm Calm -- 29.80 in1009.1 mb 0.00 in0.0 mm 0.00 in0.0 mm 0.00 in0.0 mm
02:31 AM 50.4°F10.2°C 45.7°F7.6°C 84% Calm Calm -- 29.80 in1009.1 mb 0.00 in0.0 mm 0.00 in0.0 mm 0.00 in0.0 mm
02:36 AM 50.3°F10.2°C 45.9°F7.7°C 85% Calm Calm -- 29.80 in1009.1 mb 0.00 in0.0 mm 0.00 in0.0 mm 0.00 in0.0 mm
02:42 AM 50.4°F10.2°C 46.0°F7.8°C 85% Calm Calm -- 29.80 in1009.1 mb 0.00 in0.0 mm 0.00 in0.0 mm 0.00 in0.0 mm
02:47 AM 50.8°F10.4°C 46.4°F8.0°C 85% Calm Calm -- 29.80 in1009.1 mb 0.00 in0.0 mm 0.00 in0.0 mm 0.00 in0.0 mm
02:53 AM 50.8°F10.4°C 46.4°F8.0°C 85% Calm Calm -- 29.80 in1009.1 mb 0.00 in0.0 mm 0.00 in0.0 mm 0.00 in0.0 mm
02:58 AM 51.3°F10.7°C 46.8°F8.2°C 85% Calm Calm -- 29.80 in1009.1 mb 0.00 in0.0 mm 0.00 in0.0 mm 0.00 in0.0 mm
03:03 AM 51.5°F10.8°C 47.0°F8.3°C 85% Calm Calm -- 29.80 in1009.1 mb 0.00 in0.0 mm 0.00 in0.0 mm 0.00 in0.0 mm
03:08 AM 51.9°F11.1°C 47.1°F8.4°C 84% Calm Calm -- 29.83 in1010.2 mb 0.00 in0.0 mm 0.00 in0.0 mm 0.00 in0.0 mm
03:13 AM 51.9°F11.1°C 47.1°F8.4°C 84% Calm Calm -- 29.83 in1010.2 mb 0.00 in0.0 mm 0.00 in0.0 mm 0.00 in0.0 mm
03:18 AM 52.1°F11.2°C 47.0°F8.3°C 83% Calm Calm -- 29.83 in1010.2 mb 0.00 in0.0 mm 0.00 in0.0 mm 0.00 in0.0 mm
03:23 AM 52.1°F11.2°C 47.0°F8.3°C 83% Calm Calm -- 29.83 in1010.2 mb 0.00 in0.0 mm 0.00 in0.0 mm 0.00 in0.0 mm
03:28 AM 52.1°F11.2°C 47.0°F8.3°C 83% Calm Calm -- 29.83 in1010.2 mb 0.00 in0.0 mm 0.00 in0.0 mm 0.00 in0.0 mm
03:34 AM 52.4°F11.3°C 47.0°F8.3°C 82% Calm Calm -- 29.83 in1010.2 mb 0.00 in0.0 mm 0.00 in0.0 mm 0.00 in0.0 mm
03:39 AM 52.4°F11.3°C 47.0°F8.3°C 82% Calm Calm -- 29.83 in1010.2 mb 0.00 in0.0 mm 0.00 in0.0 mm 0.00 in0.0 mm
03:44 AM 52.4°F11.3°C 47.0°F8.3°C 82% Calm Calm -- 29.83 in1010.2 mb 0.00 in0.0 mm 0.00 in0.0 mm 0.00 in0.0 mm
03:49 AM 52.4°F11.3°C 47.0°F8.3°C 82% Calm Calm -- 29.83 in1010.2 mb 0.00 in0.0 mm 0.00 in0.0 mm 0.00 in0.0 mm
03:55 AM 52.2°F11.2°C 46.8°F8.2°C 82% Calm Calm -- 29.83 in1010.2 mb 0.00 in0.0 mm 0.00 in0.0 mm 0.00 in0.0 mm
04:00 AM 52.4°F11.3°C 47.3°F8.5°C 83% Calm Calm -- 29.83 in1010.2 mb 0.00 in0.0 mm 0.00 in0.0 mm 0.00 in0.0 mm
04:04 AM 52.4°F11.3°C 47.3°F8.5°C 83% Calm Calm -- 29.83 in1010.2 mb 0.00 in0.0 mm 0.00 in0.0 mm 0.00 in0.0 mm
04:10 AM 52.4°F11.3°C 47.3°F8.5°C 83% Calm Calm -- 29.83 in1010.2 mb 0.00 in0.0 mm 0.00 in0.0 mm 0.00 in0.0 mm
04:15 AM 52.4°F11.3°C 47.0°F8.3°C 82% Calm Calm -- 29.83 in1010.2 mb 0.00 in0.0 mm 0.00 in0.0 mm 0.00 in0.0 mm
04:20 AM 52.4°F11.3°C 47.3°F8.5°C 83% Calm Calm -- 29.83 in1010.2 mb 0.00 in0.0 mm 0.00 in0.0 mm 0.00 in0.0 mm
04:24 AM 52.4°F11.3°C 47.3°F8.5°C 83% Calm Calm -- 29.83 in1010.2 mb 0.00 in0.0 mm 0.00 in0.0 mm 0.00 in0.0 mm
04:30 AM 52.4°F11.3°C 47.3°F8.5°C 83% Calm Calm -- 29.83 in1010.2 mb 0.00 in0.0 mm 0.00 in0.0 mm 0.00 in0.0 mm
04:36 AM 52.2°F11.2°C 46.8°F8.2°C 82% Calm Calm -- 29.85 in1010.8 mb 0.00 in0.0 mm 0.00 in0.0 mm 0.00 in0.0 mm
04:41 AM 52.4°F11.3°C 47.0°F8.3°C 82% Calm Calm -- 29.85 in1010.8 mb 0.00 in0.0 mm 0.00 in0.0 mm 0.00 in0.0 mm
04:46 AM 52.1°F11.2°C 46.7°F8.2°C 82% Calm Calm -- 29.85 in1010.8 mb 0.00 in0.0 mm 0.00 in0.0 mm 0.00 in0.0 mm
04:51 AM 51.9°F11.1°C 46.5°F8.1°C 82% Calm Calm -- 29.85 in1010.8 mb 0.00 in0.0 mm 0.00 in0.0 mm 0.00 in0.0 mm
04:57 AM 52.1°F11.2°C 46.4°F8.0°C 81% Calm Calm -- 29.85 in1010.8 mb 0.00 in0.0 mm 0.00 in0.0 mm 0.00 in0.0 mm
05:02 AM 51.9°F11.1°C 46.2°F7.9°C 81% Calm Calm -- 29.85 in1010.8 mb 0.00 in0.0 mm 0.00 in0.0 mm 0.00 in0.0 mm
05:07 AM 51.7°F10.9°C 46.0°F7.8°C 81% Calm Calm -- 29.85 in1010.8 mb 0.00 in0.0 mm 0.00 in0.0 mm 0.00 in0.0 mm
05:12 AM 51.5°F10.8°C 46.1°F7.8°C 82% Calm Calm -- 29.85 in1010.8 mb 0.00 in0.0 mm 0.00 in0.0 mm 0.00 in0.0 mm
05:20 AM 51.5°F10.8°C 46.1°F7.8°C 82% Calm Calm -- 29.85 in1010.8 mb 0.00 in0.0 mm 0.00 in0.0 mm 0.00 in0.0 mm
05:25 AM 51.3°F10.7°C 45.9°F7.7°C 82% Calm Calm -- 29.85 in1010.8 mb 0.00 in0.0 mm 0.00 in0.0 mm 0.00 in0.0 mm
05:31 AM 51.0°F10.6°C 45.6°F7.6°C 82% Calm Calm -- 29.85 in1010.8 mb 0.00 in0.0 mm 0.00 in0.0 mm 0.00 in0.0 mm
05:36 AM 50.8°F10.4°C 45.4°F7.4°C 82% Calm Calm -- 29.85 in1010.8 mb 0.00 in0.0 mm 0.00 in0.0 mm 0.00 in0.0 mm
05:41 AM 50.8°F10.4°C 45.4°F7.4°C 82% Calm Calm -- 29.85 in1010.8 mb 0.00 in0.0 mm 0.00 in0.0 mm 0.00 in0.0 mm
05:46 AM 50.8°F10.4°C 45.4°F7.4°C 82% Calm Calm -- 29.85 in1010.8 mb 0.00 in0.0 mm 0.00 in0.0 mm 0.00 in0.0 mm
05:51 AM 50.4°F10.2°C 45.4°F7.4°C 83% Calm Calm -- 29.88 in1011.9 mb 0.00 in0.0 mm 0.00 in0.0 mm 0.00 in0.0 mm
05:56 AM 50.1°F10.1°C 45.4°F7.4°C 84% Calm Calm -- 29.88 in1011.9 mb 0.00 in0.0 mm 0.00 in0.0 mm 0.00 in0.0 mm
06:01 AM 50.1°F10.1°C 45.7°F7.6°C 85% Calm Calm -- 29.88 in1011.9 mb 0.00 in0.0 mm 0.00 in0.0 mm 0.00 in0.0 mm
06:06 AM 49.9°F9.9°C 45.5°F7.5°C 85% Calm Calm -- 29.88 in1011.9 mb 0.00 in0.0 mm 0.00 in0.0 mm 0.00 in0.0 mm
06:12 AM 49.7°F9.8°C 45.6°F7.6°C 86% Calm Calm -- 29.88 in1011.9 mb 0.00 in0.0 mm 0.00 in0.0 mm 0.00 in0.0 mm
06:17 AM 49.4°F9.7°C 45.0°F7.2°C 85% 4.5 mph ENE7.2 kmh ENE 5.8 mph9.3 kmh 29.88 in1011.9 mb 0.00 in0.0 mm 0.00 in0.0 mm 0.00 in0.0 mm
06:22 AM 49.5°F9.7°C 45.4°F7.4°C 86% 5.9 mph NE9.5 kmh NE 8.0 mph12.9 kmh 29.91 in1012.9 mb 0.00 in0.0 mm 0.00 in0.0 mm 0.00 in0.0 mm
06:27 AM 50.3°F10.2°C 47.1°F8.4°C 89% 5.1 mph NE8.2 kmh NE 8.0 mph12.9 kmh 29.91 in1012.9 mb 0.00 in0.0 mm 0.00 in0.0 mm 0.00 in0.0 mm
06:33 AM 51.0°F10.6°C 47.5°F8.6°C 88% 2.2 mph NNE3.5 kmh NNE 7.2 mph11.6 kmh 29.91 in1012.9 mb 0.00 in0.0 mm 0.00 in0.0 mm 0.00 in0.0 mm
06:38 AM 51.2°F10.7°C 47.4°F8.6°C 87% 1.8 mph NNE2.9 kmh NNE 5.4 mph8.7 kmh 29.91 in1012.9 mb 0.00 in0.0 mm 0.00 in0.0 mm 0.00 in0.0 mm
06:43 AM 51.5°F10.8°C 47.6°F8.7°C 87% 2.0 mph NNE3.2 kmh NNE 5.0 mph8.0 kmh 29.91 in1012.9 mb 0.00 in0.0 mm 0.00 in0.0 mm 0.00 in0.0 mm
06:48 AM 52.4°F11.3°C 48.2°F9.0°C 86% 1.8 mph ENE2.9 kmh ENE 5.4 mph8.7 kmh 29.91 in1012.9 mb 0.00 in0.0 mm 0.00 in0.0 mm 0.00 in0.0 mm
06:54 AM 53.1°F11.7°C 48.9°F9.4°C 86% 4.6 mph ENE7.4 kmh ENE 6.2 mph10.0 kmh 29.91 in1012.9 mb 0.00 in0.0 mm 0.00 in0.0 mm 0.00 in0.0 mm
06:59 AM 54.2°F12.3°C 49.4°F9.7°C 84% 3.0 mph ENE4.8 kmh ENE 6.2 mph10.0 kmh 29.91 in1012.9 mb 0.00 in0.0 mm 0.00 in0.0 mm 0.00 in0.0 mm
07:06 AM 55.5°F13.1°C 50.3°F10.2°C 83% Calm Calm 4.0 mph6.4 kmh 29.88 in1011.9 mb 0.00 in0.0 mm 0.00 in0.0 mm 0.00 in0.0 mm
07:11 AM 55.8°F13.2°C 50.3°F10.2°C 82% 2.9 mph ENE4.7 kmh ENE 4.0 mph6.4 kmh 29.88 in1011.9 mb 0.00 in0.0 mm 0.00 in0.0 mm 0.00 in0.0 mm
07:16 AM 56.4°F13.6°C 50.6°F10.3°C 81% 4.8 mph E7.7 kmh E 6.8 mph10.9 kmh 29.88 in1011.9 mb 0.00 in0.0 mm 0.00 in0.0 mm 0.00 in0.0 mm
07:21 AM 56.7°F13.7°C 50.2°F10.1°C 79% 5.6 mph ENE9.0 kmh ENE 6.8 mph10.9 kmh 29.91 in1012.9 mb 0.00 in0.0 mm 0.00 in0.0 mm 0.00 in0.0 mm
07:26 AM 57.1°F13.9°C 50.3°F10.2°C 78% 2.6 mph E4.2 kmh E 6.8 mph10.9 kmh 29.91 in1012.9 mb 0.00 in0.0 mm 0.00 in0.0 mm 0.00 in0.0 mm
07:31 AM 57.5°F14.2°C 50.3°F10.2°C 77% 4.3 mph NE6.9 kmh NE 6.2 mph10.0 kmh 29.91 in1012.9 mb 0.00 in0.0 mm 0.00 in0.0 mm 0.00 in0.0 mm
07:36 AM 57.8°F14.3°C 50.3°F10.2°C 76% 4.6 mph NE7.4 kmh NE 6.2 mph10.0 kmh 29.88 in1011.9 mb 0.00 in0.0 mm 0.00 in0.0 mm 0.00 in0.0 mm
07:41 AM 58.0°F14.4°C 50.1°F10.1°C 75% 3.5 mph E5.6 kmh E 6.2 mph10.0 kmh 29.88 in1011.9 mb 0.00 in0.0 mm 0.00 in0.0 mm 0.00 in0.0 mm
07:47 AM 58.5°F14.7°C 50.6°F10.3°C 75% 4.0 mph SE6.4 kmh SE 5.8 mph9.3 kmh 29.88 in1011.9 mb 0.00 in0.0 mm 0.00 in0.0 mm 0.00 in0.0 mm
07:52 AM 58.9°F14.9°C 50.6°F10.3°C 74% 5.8 mph SE9.3 kmh SE 8.0 mph12.9 kmh 29.91 in1012.9 mb 0.00 in0.0 mm 0.00 in0.0 mm 0.00 in0.0 mm
07:58 AM 59.4°F15.2°C 50.7°F10.4°C 73% 5.0 mph SE8.0 kmh SE 8.0 mph12.9 kmh 29.91 in1012.9 mb 0.00 in0.0 mm 0.00 in0.0 mm 0.00 in0.0 mm
08:03 AM 59.9°F15.5°C 51.3°F10.7°C 73% 3.6 mph ESE5.8 kmh ESE 6.8 mph10.9 kmh 29.91 in1012.9 mb 0.00 in0.0 mm 0.00 in0.0 mm 0.00 in0.0 mm
08:09 AM 60.4°F15.8°C 51.4°F10.8°C 72% 3.9 mph SE6.3 kmh SE 6.2 mph10.0 kmh 29.94 in1013.9 mb 0.00 in0.0 mm 0.00 in0.0 mm 0.00 in0.0 mm
08:14 AM 61.1°F16.2°C 51.7°F10.9°C 71% 3.0 mph ESE4.8 kmh ESE 6.2 mph10.0 kmh 29.94 in1013.9 mb 0.00 in0.0 mm 0.00 in0.0 mm 0.00 in0.0 mm
08:19 AM 62.4°F16.9°C 52.6°F11.4°C 70% 2.8 mph SSE4.5 kmh SSE 6.2 mph10.0 kmh 29.94 in1013.9 mb 0.00 in0.0 mm 0.00 in0.0 mm 0.00 in0.0 mm
08:24 AM 63.1°F17.3°C 52.1°F11.2°C 67% 3.4 mph SSE5.5 kmh SSE 6.8 mph10.9 kmh 29.91 in1012.9 mb 0.00 in0.0 mm 0.00 in0.0 mm 0.00 in0.0 mm
08:29 AM 64.2°F17.9°C 52.7°F11.5°C 66% Calm Calm 6.8 mph10.9 kmh 29.91 in1012.9 mb 0.00 in0.0 mm 0.00 in0.0 mm 0.00 in0.0 mm
08:34 AM 66.2°F19.0°C 54.2°F12.3°C 65% 2.8 mph SE4.5 kmh SE 5.0 mph8.0 kmh 29.91 in1012.9 mb 0.00 in0.0 mm 0.00 in0.0 mm 0.00 in0.0 mm
08:39 AM 67.3°F19.6°C 52.1°F11.2°C 58% 4.4 mph SW7.1 kmh SW 7.2 mph11.6 kmh 29.91 in1012.9 mb 0.00 in0.0 mm 0.00 in0.0 mm 0.00 in0.0 mm
08:44 AM 68.7°F20.4°C 53.4°F11.9°C 58% 4.2 mph S6.8 kmh S 7.2 mph11.6 kmh 29.91 in1012.9 mb 0.00 in0.0 mm 0.00 in0.0 mm 0.00 in0.0 mm
08:50 AM 69.4°F20.8°C 52.1°F11.2°C 54% 3.7 mph S6.0 kmh S 5.8 mph9.3 kmh 29.91 in1012.9 mb 0.00 in0.0 mm 0.00 in0.0 mm 0.00 in0.0 mm
08:55 AM 70.0°F21.1°C 51.6°F10.9°C 52% 3.4 mph S5.5 kmh S 5.4 mph8.7 kmh 29.94 in1013.9 mb 0.00 in0.0 mm 0.00 in0.0 mm 0.00 in0.0 mm
09:00 AM 71.4°F21.9°C 52.4°F11.3°C 51% 2.8 mph SSE4.5 kmh SSE 5.0 mph8.0 kmh 29.94 in1013.9 mb 0.00 in0.0 mm 0.00 in0.0 mm 0.00 in0.0 mm
09:04 AM 72.5°F22.5°C 52.3°F11.3°C 49% 3.3 mph SE5.3 kmh SE 6.8 mph10.9 kmh 29.94 in1013.9 mb 0.00 in0.0 mm 0.00 in0.0 mm 0.00 in0.0 mm
09:10 AM 73.0°F22.8°C 51.5°F10.8°C 47% 3.9 mph S6.3 kmh S 6.8 mph10.9 kmh 29.91 in1012.9 mb 0.00 in0.0 mm 0.00 in0.0 mm 0.00 in0.0 mm
09:15 AM 73.9°F23.3°C 51.8°F11.0°C 46% 4.0 mph WSW6.4 kmh WSW 6.8 mph10.9 kmh 29.91 in1012.9 mb 0.00 in0.0 mm 0.00 in0.0 mm 0.00 in0.0 mm
09:20 AM 75.4°F24.1°C 52.5°F11.4°C 45% 4.5 mph S7.2 kmh S 7.2 mph11.6 kmh 29.91 in1012.9 mb 0.00 in0.0 mm 0.00 in0.0 mm 0.00 in0.0 mm
09:25 AM 75.4°F24.1°C 51.9°F11.1°C 44% 3.8 mph SW6.1 kmh SW 7.2 mph11.6 kmh 29.91 in1012.9 mb 0.00 in0.0 mm 0.00 in0.0 mm 0.00 in0.0 mm
09:30 AM 76.4°F24.7°C 52.1°F11.2°C 43% 6.0 mph SSE9.7 kmh SSE 7.6 mph12.2 kmh 29.91 in1012.9 mb 0.00 in0.0 mm 0.00 in0.0 mm 0.00 in0.0 mm
09:35 AM 76.4°F24.7°C 51.5°F10.8°C 42% 6.2 mph SE10.0 kmh SE 8.6 mph13.8 kmh 29.91 in1012.9 mb 0.00 in0.0 mm 0.00 in0.0 mm 0.00 in0.0 mm
09:41 AM 76.8°F24.9°C 51.9°F11.1°C 42% 5.9 mph SSE9.5 kmh SSE 8.6 mph13.8 kmh 29.91 in1012.9 mb 0.00 in0.0 mm 0.00 in0.0 mm 0.00 in0.0 mm
09:46 AM 77.5°F25.3°C 52.5°F11.4°C 42% 3.9 mph SE6.3 kmh SE 8.6 mph13.8 kmh 29.91 in1012.9 mb 0.00 in0.0 mm 0.00 in0.0 mm 0.00 in0.0 mm
09:51 AM 77.9°F25.5°C 52.8°F11.6°C 42% 5.1 mph S8.2 kmh S 8.0 mph12.9 kmh 29.91 in1012.9 mb 0.00 in0.0 mm 0.00 in0.0 mm 0.00 in0.0 mm
09:56 AM 78.4°F25.8°C 52.6°F11.4°C 41% 4.2 mph SSW6.8 kmh SSW 8.0 mph12.9 kmh 29.91 in1012.9 mb 0.00 in0.0 mm 0.00 in0.0 mm 0.00 in0.0 mm
10:01 AM 78.8°F26.0°C 52.3°F11.3°C 40% 5.1 mph S8.2 kmh S 9.8 mph15.8 kmh 29.91 in1012.9 mb 0.00 in0.0 mm 0.00 in0.0 mm 0.00 in0.0 mm
10:06 AM 79.1°F26.2°C 51.9°F11.1°C 39% 7.0 mph S11.3 kmh S 9.8 mph15.8 kmh 29.88 in1011.9 mb 0.00 in0.0 mm 0.00 in0.0 mm 0.00 in0.0 mm
10:13 AM 79.5°F26.4°C 52.2°F11.2°C 39% 6.1 mph S9.8 kmh S 9.8 mph15.8 kmh 29.88 in1011.9 mb 0.00 in0.0 mm 0.00 in0.0 mm 0.00 in0.0 mm
10:18 AM 80.4°F26.9°C 51.6°F10.9°C 37% 5.9 mph S9.5 kmh S 8.0 mph12.9 kmh 29.88 in1011.9 mb 0.00 in0.0 mm 0.00 in0.0 mm 0.00 in0.0 mm
10:23 AM 80.6°F27.0°C 51.7°F10.9°C 37% 4.0 mph S6.4 kmh S 9.8 mph15.8 kmh 29.88 in1011.9 mb 0.00 in0.0 mm 0.00 in0.0 mm 0.00 in0.0 mm
10:28 AM 80.8°F27.1°C 51.2°F10.7°C 36% 6.3 mph S10.1 kmh S 12.0 mph19.3 kmh 29.88 in1011.9 mb 0.00 in0.0 mm 0.00 in0.0 mm 0.00 in0.0 mm
10:36 AM 81.7°F27.6°C 52.0°F11.1°C 36% 7.0 mph SSW11.3 kmh SSW 12.0 mph19.3 kmh 29.88 in1011.9 mb 0.00 in0.0 mm 0.00 in0.0 mm 0.00 in0.0 mm
10:41 AM 81.8°F27.7°C 51.3°F10.7°C 35% 6.7 mph SSW10.8 kmh SSW 11.6 mph18.7 kmh 29.88 in1011.9 mb 0.00 in0.0 mm 0.00 in0.0 mm 0.00 in0.0 mm
10:47 AM 81.7°F27.6°C 51.2°F10.7°C 35% 5.9 mph WSW9.5 kmh WSW 11.2 mph18.0 kmh 29.88 in1011.9 mb 0.00 in0.0 mm 0.00 in0.0 mm 0.00 in0.0 mm
10:52 AM 81.7°F27.6°C 51.2°F10.7°C 35% 6.1 mph WSW9.8 kmh WSW 9.4 mph15.1 kmh 29.88 in1011.9 mb 0.00 in0.0 mm 0.00 in0.0 mm 0.00 in0.0 mm
10:57 AM 81.5°F27.5°C 50.2°F10.1°C 34% 7.0 mph WNW11.3 kmh WNW 12.0 mph19.3 kmh 29.88 in1011.9 mb 0.00 in0.0 mm 0.00 in0.0 mm 0.00 in0.0 mm
11:02 AM 81.8°F27.7°C 50.5°F10.3°C 34% 6.1 mph W9.8 kmh W 12.0 mph19.3 kmh 29.88 in1011.9 mb 0.00 in0.0 mm 0.00 in0.0 mm 0.00 in0.0 mm
11:08 AM 82.7°F28.2°C 51.3°F10.7°C 34% 4.4 mph S7.1 kmh S 10.8 mph17.4 kmh 29.88 in1011.9 mb 0.00 in0.0 mm 0.00 in0.0 mm 0.00 in0.0 mm
11:13 AM 83.1°F28.4°C 50.0°F10.0°C 32% 9.4 mph SSW15.1 kmh SSW 11.6 mph18.7 kmh 29.88 in1011.9 mb 0.00 in0.0 mm 0.00 in0.0 mm 0.00 in0.0 mm
11:18 AM 83.3°F28.5°C 50.1°F10.1°C 32% 5.7 mph SW9.2 kmh SW 11.6 mph18.7 kmh 29.88 in1011.9 mb 0.00 in0.0 mm 0.00 in0.0 mm 0.00 in0.0 mm
11:23 AM 83.3°F28.5°C 51.0°F10.6°C 33% 8.5 mph SSE13.7 kmh SSE 12.0 mph19.3 kmh 29.88 in1011.9 mb 0.00 in0.0 mm 0.00 in0.0 mm 0.00 in0.0 mm
11:28 AM 83.1°F28.4°C 50.0°F10.0°C 32% 8.9 mph S14.3 kmh S 15.6 mph25.1 kmh 29.88 in1011.9 mb 0.00 in0.0 mm 0.00 in0.0 mm 0.00 in0.0 mm
11:33 AM 83.1°F28.4°C 50.0°F10.0°C 32% 8.1 mph WNW13.0 kmh WNW 15.6 mph25.1 kmh 29.88 in1011.9 mb 0.00 in0.0 mm 0.00 in0.0 mm 0.00 in0.0 mm
11:39 AM 84.5°F29.2°C 51.2°F10.7°C 32% 6.4 mph S10.3 kmh S 14.8 mph23.8 kmh 29.88 in1011.9 mb 0.00 in0.0 mm 0.00 in0.0 mm 0.00 in0.0 mm
11:44 AM 84.4°F29.1°C 50.2°F10.1°C 31% 5.7 mph SW9.2 kmh SW 13.0 mph20.9 kmh 29.88 in1011.9 mb 0.00 in0.0 mm 0.00 in0.0 mm 0.00 in0.0 mm
11:49 AM 84.5°F29.2°C 51.2°F10.7°C 32% 5.8 mph WNW9.3 kmh WNW 13.0 mph20.9 kmh 29.88 in1011.9 mb 0.00 in0.0 mm 0.00 in0.0 mm 0.00 in0.0 mm
11:55 AM 83.6°F28.7°C 50.4°F10.2°C 32% 6.6 mph SW10.6 kmh SW 13.0 mph20.9 kmh 29.88 in1011.9 mb 0.00 in0.0 mm 0.00 in0.0 mm 0.00 in0.0 mm
11:59 AM 82.0°F27.8°C 49.8°F9.9°C 33% 4.8 mph SW7.7 kmh SW 13.0 mph20.9 kmh 29.88 in1011.9 mb 0.00 in0.0 mm 0.00 in0.0 mm 0.00 in0.0 mm
12:04 PM 81.8°F27.7°C 49.7°F9.8°C 33% 5.3 mph SSW8.5 kmh SSW 11.6 mph18.7 kmh 29.88 in1011.9 mb 0.00 in0.0 mm 0.00 in0.0 mm 0.00 in0.0 mm
12:09 PM 82.4°F28.0°C 50.2°F10.1°C 33% 7.5 mph SW12.1 kmh SW 12.0 mph19.3 kmh 29.88 in1011.9 mb 0.00 in0.0 mm 0.00 in0.0 mm 0.00 in0.0 mm
12:14 PM 84.0°F28.9°C 50.8°F10.4°C 32% 7.4 mph SSW11.9 kmh SSW 12.0 mph19.3 kmh 29.88 in1011.9 mb 0.00 in0.0 mm 0.00 in0.0 mm 0.00 in0.0 mm
12:19 PM 84.5°F29.2°C 50.3°F10.2°C 31% 6.6 mph S10.6 kmh S 9.8 mph15.8 kmh 29.88 in1011.9 mb 0.00 in0.0 mm 0.00 in0.0 mm 0.00 in0.0 mm
12:24 PM 85.3°F29.6°C 51.0°F10.6°C 31% 6.6 mph SW10.6 kmh SW 9.8 mph15.8 kmh 29.85 in1010.8 mb 0.00 in0.0 mm 0.00 in0.0 mm 0.00 in0.0 mm
12:30 PM 85.6°F29.8°C 51.3°F10.7°C 31% 6.6 mph SW10.6 kmh SW 9.4 mph15.1 kmh 29.85 in1010.8 mb 0.00 in0.0 mm 0.00 in0.0 mm 0.00 in0.0 mm
12:35 PM 85.6°F29.8°C 51.3°F10.7°C 31% 5.9 mph W9.5 kmh W 12.0 mph19.3 kmh 29.85 in1010.8 mb 0.00 in0.0 mm 0.00 in0.0 mm 0.00 in0.0 mm
12:40 PM 85.4°F29.7°C 52.0°F11.1°C 32% 7.9 mph SW12.7 kmh SW 12.6 mph20.3 kmh 29.85 in1010.8 mb 0.00 in0.0 mm 0.00 in0.0 mm 0.00 in0.0 mm
12:44 PM 85.8°F29.9°C 51.5°F10.8°C 31% 7.5 mph SSW12.1 kmh SSW 12.6 mph20.3 kmh 29.85 in1010.8 mb 0.00 in0.0 mm 0.00 in0.0 mm 0.00 in0.0 mm
12:50 PM 85.8°F29.9°C 50.6°F10.3°C 30% 6.8 mph SSW10.9 kmh SSW 12.6 mph20.3 kmh 29.85 in1010.8 mb 0.00 in0.0 mm 0.00 in0.0 mm 0.00 in0.0 mm
12:55 PM 86.2°F30.1°C 50.9°F10.5°C 30% 8.2 mph SW13.2 kmh SW 14.4 mph23.2 kmh 29.85 in1010.8 mb 0.00 in0.0 mm 0.00 in0.0 mm 0.00 in0.0 mm
01:00 PM 86.0°F30.0°C 50.8°F10.4°C 30% 7.2 mph NW11.6 kmh NW 14.4 mph23.2 kmh 29.85 in1010.8 mb 0.00 in0.0 mm 0.00 in0.0 mm 0.00 in0.0 mm
01:05 PM 86.5°F30.3°C 51.2°F10.7°C 30% 7.6 mph SSW12.2 kmh SSW 11.6 mph18.7 kmh 29.85 in1010.8 mb 0.00 in0.0 mm 0.00 in0.0 mm 0.00 in0.0 mm
01:11 PM 85.6°F29.8°C 50.4°F10.2°C 30% 9.0 mph SSW14.5 kmh SSW 15.2 mph24.5 kmh 29.85 in1010.8 mb 0.00 in0.0 mm 0.00 in0.0 mm 0.00 in0.0 mm
01:16 PM 85.3°F29.6°C 50.1°F10.1°C 30% 6.8 mph WSW10.9 kmh WSW 15.2 mph24.5 kmh 29.85 in1010.8 mb 0.00 in0.0 mm 0.00 in0.0 mm 0.00 in0.0 mm
01:21 PM 85.3°F29.6°C 50.1°F10.1°C 30% 7.1 mph WSW11.4 kmh WSW 11.2 mph18.0 kmh 29.83 in1010.2 mb 0.00 in0.0 mm 0.00 in0.0 mm 0.00 in0.0 mm
01:26 PM 83.8°F28.8°C 48.9°F9.4°C 30% 11.8 mph SSW19.0 kmh SSW 15.6 mph25.1 kmh 29.83 in1010.2 mb 0.00 in0.0 mm 0.00 in0.0 mm 0.00 in0.0 mm
01:31 PM 84.7°F29.3°C 49.6°F9.8°C 30% 6.8 mph SSW10.9 kmh SSW 15.6 mph25.1 kmh 29.83 in1010.2 mb 0.00 in0.0 mm 0.00 in0.0 mm 0.00 in0.0 mm
01:36 PM 86.3°F30.2°C 51.0°F10.6°C 30% 5.2 mph SW8.4 kmh SW 15.2 mph24.5 kmh 29.85 in1010.8 mb 0.00 in0.0 mm 0.00 in0.0 mm 0.00 in0.0 mm
01:43 PM 87.1°F30.6°C 51.7°F10.9°C 30% 8.4 mph SW13.5 kmh SW 12.0 mph19.3 kmh 29.85 in1010.8 mb 0.00 in0.0 mm 0.00 in0.0 mm 0.00 in0.0 mm
01:48 PM 87.1°F30.6°C 50.8°F10.4°C 29% 7.1 mph SW11.4 kmh SW 12.0 mph19.3 kmh 29.85 in1010.8 mb 0.00 in0.0 mm 0.00 in0.0 mm 0.00 in0.0 mm
01:54 PM 86.7°F30.4°C 50.4°F10.2°C 29% 9.5 mph SW15.3 kmh SW 13.0 mph20.9 kmh 29.85 in1010.8 mb 0.00 in0.0 mm 0.00 in0.0 mm 0.00 in0.0 mm
01:59 PM 86.3°F30.2°C 50.1°F10.1°C 29% 9.4 mph S15.1 kmh S 15.2 mph24.5 kmh 29.85 in1010.8 mb 0.00 in0.0 mm 0.00 in0.0 mm 0.00 in0.0 mm
02:04 PM 86.2°F30.1°C 50.0°F10.0°C 29% 7.0 mph SSW11.3 kmh SSW 15.2 mph24.5 kmh 29.85 in1010.8 mb 0.00 in0.0 mm 0.00 in0.0 mm 0.00 in0.0 mm
02:09 PM 86.9°F30.5°C 50.6°F10.3°C 29% 5.4 mph SW8.7 kmh SW 11.6 mph18.7 kmh 29.85 in1010.8 mb 0.00 in0.0 mm 0.00 in0.0 mm 0.00 in0.0 mm
02:15 PM 86.9°F30.5°C 50.6°F10.3°C 29% 6.1 mph SW9.8 kmh SW 9.4 mph15.1 kmh 29.85 in1010.8 mb 0.00 in0.0 mm 0.00 in0.0 mm 0.00 in0.0 mm
02:19 PM 87.4°F30.8°C 51.0°F10.6°C 29% 6.7 mph S10.8 kmh S 10.8 mph17.4 kmh 29.85 in1010.8 mb 0.00 in0.0 mm 0.00 in0.0 mm 0.00 in0.0 mm
02:25 PM 87.6°F30.9°C 50.3°F10.2°C 28% 6.6 mph S10.6 kmh S 10.8 mph17.4 kmh 29.83 in1010.2 mb 0.00 in0.0 mm 0.00 in0.0 mm 0.00 in0.0 mm
02:30 PM 87.2°F30.7°C 50.9°F10.5°C 29% 5.6 mph SSW9.0 kmh SSW 12.0 mph19.3 kmh 29.83 in1010.2 mb 0.00 in0.0 mm 0.00 in0.0 mm 0.00 in0.0 mm
02:35 PM 87.8°F31.0°C 50.5°F10.3°C 28% 5.8 mph SW9.3 kmh SW 12.0 mph19.3 kmh 29.83 in1010.2 mb 0.00 in0.0 mm 0.00 in0.0 mm 0.00 in0.0 mm
02:40 PM 87.4°F30.8°C 50.1°F10.1°C 28% 6.6 mph SSW10.6 kmh SSW 11.6 mph18.7 kmh 29.83 in1010.2 mb 0.00 in0.0 mm 0.00 in0.0 mm 0.00 in0.0 mm
02:45 PM 86.7°F30.4°C 49.5°F9.7°C 28% 7.0 mph S11.3 kmh S 14.4 mph23.2 kmh 29.83 in1010.2 mb 0.00 in0.0 mm 0.00 in0.0 mm 0.00 in0.0 mm
02:50 PM 86.3°F30.2°C 49.2°F9.6°C 28% 8.3 mph W13.4 kmh W 14.4 mph23.2 kmh 29.83 in1010.2 mb 0.00 in0.0 mm 0.00 in0.0 mm 0.00 in0.0 mm
02:56 PM 86.7°F30.4°C 49.5°F9.7°C 28% 8.4 mph SSE13.5 kmh SSE 13.0 mph20.9 kmh 29.83 in1010.2 mb 0.00 in0.0 mm 0.00 in0.0 mm 0.00 in0.0 mm
03:01 PM 86.5°F30.3°C 47.4°F8.6°C 26% 8.3 mph WSW13.4 kmh WSW 11.6 mph18.7 kmh 29.83 in1010.2 mb 0.00 in0.0 mm 0.00 in0.0 mm 0.00 in0.0 mm
03:06 PM 85.3°F29.6°C 47.3°F8.5°C 27% 8.3 mph W13.4 kmh W 11.2 mph18.0 kmh 29.80 in1009.1 mb 0.00 in0.0 mm 0.00 in0.0 mm 0.00 in0.0 mm
03:11 PM 84.7°F29.3°C 45.8°F7.7°C 26% 8.7 mph WSW14.0 kmh WSW 11.6 mph18.7 kmh 29.80 in1009.1 mb 0.00 in0.0 mm 0.00 in0.0 mm 0.00 in0.0 mm
03:16 PM 85.1°F29.5°C 47.2°F8.4°C 27% 6.3 mph S10.1 kmh S 13.0 mph20.9 kmh 29.80 in1009.1 mb 0.00 in0.0 mm 0.00 in0.0 mm 0.00 in0.0 mm
03:21 PM 84.9°F29.4°C 48.0°F8.9°C 28% 6.6 mph W10.6 kmh W 13.0 mph20.9 kmh 29.80 in1009.1 mb 0.00 in0.0 mm 0.00 in0.0 mm 0.00 in0.0 mm
03:26 PM 85.1°F29.5°C 47.2°F8.4°C 27% 6.6 mph WSW10.6 kmh WSW 17.0 mph27.4 kmh 29.80 in1009.1 mb 0.00 in0.0 mm 0.00 in0.0 mm 0.00 in0.0 mm
03:31 PM 85.8°F29.9°C 46.8°F8.2°C 26% 6.7 mph SSW10.8 kmh SSW 17.0 mph27.4 kmh 29.80 in1009.1 mb 0.00 in0.0 mm 0.00 in0.0 mm 0.00 in0.0 mm
03:36 PM 86.3°F30.2°C 46.2°F7.9°C 25% 4.5 mph SW7.2 kmh SW 12.6 mph20.3 kmh 29.80 in1009.1 mb 0.00 in0.0 mm 0.00 in0.0 mm 0.00 in0.0 mm
03:41 PM 86.9°F30.5°C 45.6°F7.6°C 24% 6.0 mph SW9.7 kmh SW 11.2 mph18.0 kmh 29.80 in1009.1 mb 0.00 in0.0 mm 0.00 in0.0 mm 0.00 in0.0 mm
03:46 PM 86.7°F30.4°C 47.5°F8.6°C 26% 5.2 mph S8.4 kmh S 8.6 mph13.8 kmh 29.80 in1009.1 mb 0.00 in0.0 mm 0.00 in0.0 mm 0.00 in0.0 mm
03:51 PM 84.9°F29.4°C 43.9°F6.6°C 24% 7.4 mph SW11.9 kmh SW 11.6 mph18.7 kmh 29.77 in1008.1 mb 0.00 in0.0 mm 0.00 in0.0 mm 0.00 in0.0 mm
03:56 PM 84.0°F28.9°C 40.9°F4.9°C 22% 5.2 mph SW8.4 kmh SW 11.6 mph18.7 kmh 29.77 in1008.1 mb 0.00 in0.0 mm 0.00 in0.0 mm 0.00 in0.0 mm
04:01 PM 84.0°F28.9°C 44.2°F6.8°C 25% 7.5 mph SW12.1 kmh SW 11.6 mph18.7 kmh 29.77 in1008.1 mb 0.00 in0.0 mm 0.00 in0.0 mm 0.00 in0.0 mm
04:07 PM 84.9°F29.4°C 43.9°F6.6°C 24% 8.6 mph SW13.8 kmh SW 11.6 mph18.7 kmh 29.80 in1009.1 mb 0.00 in0.0 mm 0.00 in0.0 mm 0.00 in0.0 mm
04:12 PM 84.9°F29.4°C 43.9°F6.6°C 24% 7.2 mph S11.6 kmh S 13.0 mph20.9 kmh 29.80 in1009.1 mb 0.00 in0.0 mm 0.00 in0.0 mm 0.00 in0.0 mm
04:20 PM 84.5°F29.2°C 41.4°F5.2°C 22% 7.0 mph S11.3 kmh S 13.0 mph20.9 kmh 29.80 in1009.1 mb 0.00 in0.0 mm 0.00 in0.0 mm 0.00 in0.0 mm
04:25 PM 84.0°F28.9°C 40.9°F4.9°C 22% 7.2 mph SW11.6 kmh SW 11.6 mph18.7 kmh 29.80 in1009.1 mb 0.00 in0.0 mm 0.00 in0.0 mm 0.00 in0.0 mm
04:31 PM 83.6°F28.7°C 40.6°F4.8°C 22% 8.4 mph SW13.5 kmh SW 13.4 mph21.6 kmh 29.80 in1009.1 mb 0.00 in0.0 mm 0.00 in0.0 mm 0.00 in0.0 mm
04:36 PM 83.3°F28.5°C 40.4°F4.7°C 22% 7.6 mph SW12.2 kmh SW 15.2 mph24.5 kmh 29.80 in1009.1 mb 0.00 in0.0 mm 0.00 in0.0 mm 0.00 in0.0 mm
04:42 PM 82.4°F28.0°C 40.7°F4.8°C 23% 7.4 mph SW11.9 kmh SW 15.2 mph24.5 kmh 29.80 in1009.1 mb 0.00 in0.0 mm 0.00 in0.0 mm 0.00 in0.0 mm
04:47 PM 82.7°F28.2°C 41.0°F5.0°C 23% 7.4 mph SW11.9 kmh SW 11.6 mph18.7 kmh 29.80 in1009.1 mb 0.00 in0.0 mm 0.00 in0.0 mm 0.00 in0.0 mm
04:53 PM 83.1°F28.4°C 40.2°F4.6°C 22% 7.7 mph W12.4 kmh W 11.6 mph18.7 kmh 29.80 in1009.1 mb 0.00 in0.0 mm 0.00 in0.0 mm 0.00 in0.0 mm
04:58 PM 82.9°F28.3°C 41.2°F5.1°C 23% 5.3 mph S8.5 kmh S 14.4 mph23.2 kmh 29.80 in1009.1 mb 0.00 in0.0 mm 0.00 in0.0 mm 0.00 in0.0 mm
05:04 PM 82.2°F27.9°C 40.6°F4.8°C 23% 8.7 mph SW14.0 kmh SW 14.8 mph23.8 kmh 29.80 in1009.1 mb 0.00 in0.0 mm 0.00 in0.0 mm 0.00 in0.0 mm
05:10 PM 82.0°F27.8°C 39.3°F4.1°C 22% 6.9 mph WSW11.1 kmh WSW 14.8 mph23.8 kmh 29.77 in1008.1 mb 0.00 in0.0 mm 0.00 in0.0 mm 0.00 in0.0 mm
05:14 PM 81.8°F27.7°C 40.2°F4.6°C 23% 6.9 mph WSW11.1 kmh WSW 13.4 mph21.6 kmh 29.77 in1008.1 mb 0.00 in0.0 mm 0.00 in0.0 mm 0.00 in0.0 mm
05:20 PM 81.8°F27.7°C 39.1°F3.9°C 22% 6.7 mph SSW10.8 kmh SSW 12.0 mph19.3 kmh 29.77 in1008.1 mb 0.00 in0.0 mm 0.00 in0.0 mm 0.00 in0.0 mm
05:26 PM 81.7°F27.6°C 40.2°F4.6°C 23% 7.9 mph SW12.7 kmh SW 13.0 mph20.9 kmh 29.77 in1008.1 mb 0.00 in0.0 mm 0.00 in0.0 mm 0.00 in0.0 mm
05:31 PM 81.1°F27.3°C 38.5°F3.6°C 22% 7.2 mph SW11.6 kmh SW 13.0 mph20.9 kmh 29.77 in1008.1 mb 0.00 in0.0 mm 0.00 in0.0 mm 0.00 in0.0 mm
05:38 PM 80.6°F27.0°C 39.2°F4.0°C 23% 7.7 mph SSW12.4 kmh SSW 14.8 mph23.8 kmh 29.77 in1008.1 mb 0.00 in0.0 mm 0.00 in0.0 mm 0.00 in0.0 mm
05:43 PM 80.0°F26.7°C 39.8°F4.3°C 24% 7.2 mph SW11.6 kmh SW 14.8 mph23.8 kmh 29.77 in1008.1 mb 0.00 in0.0 mm 0.00 in0.0 mm 0.00 in0.0 mm
05:48 PM 79.9°F26.6°C 39.7°F4.3°C 24% 8.4 mph SW13.5 kmh SW 13.0 mph20.9 kmh 29.77 in1008.1 mb 0.00 in0.0 mm 0.00 in0.0 mm 0.00 in0.0 mm
05:53 PM 79.7°F26.5°C 40.6°F4.8°C 25% 7.4 mph SW11.9 kmh SW 17.4 mph28.0 kmh 29.77 in1008.1 mb 0.00 in0.0 mm 0.00 in0.0 mm 0.00 in0.0 mm
05:58 PM 79.1°F26.2°C 40.1°F4.5°C 25% 4.6 mph SW7.4 kmh SW 17.4 mph28.0 kmh 29.77 in1008.1 mb 0.00 in0.0 mm 0.00 in0.0 mm 0.00 in0.0 mm
06:03 PM 78.8°F26.0°C 41.8°F5.4°C 27% 5.7 mph SSW9.2 kmh SSW 8.0 mph12.9 kmh 29.77 in1008.1 mb 0.00 in0.0 mm 0.00 in0.0 mm 0.00 in0.0 mm
06:08 PM 78.6°F25.9°C 39.7°F4.3°C 25% 6.0 mph SW9.7 kmh SW 8.6 mph13.8 kmh 29.77 in1008.1 mb 0.00 in0.0 mm 0.00 in0.0 mm 0.00 in0.0 mm
06:13 PM 78.2°F25.7°C 41.3°F5.2°C 27% 5.3 mph SW8.5 kmh SW 8.6 mph13.8 kmh 29.77 in1008.1 mb 0.00 in0.0 mm 0.00 in0.0 mm 0.00 in0.0 mm
06:20 PM 77.5°F25.3°C 41.6°F5.3°C 28% 5.7 mph S9.2 kmh S 7.6 mph12.2 kmh 29.77 in1008.1 mb 0.00 in0.0 mm 0.00 in0.0 mm 0.00 in0.0 mm
06:25 PM 77.2°F25.1°C 40.4°F4.7°C 27% 5.7 mph S9.2 kmh S 9.0 mph14.5 kmh 29.77 in1008.1 mb 0.00 in0.0 mm 0.00 in0.0 mm 0.00 in0.0 mm
06:30 PM 76.8°F24.9°C 41.0°F5.0°C 28% 8.4 mph S13.5 kmh S 13.0 mph20.9 kmh 29.77 in1008.1 mb 0.00 in0.0 mm 0.00 in0.0 mm 0.00 in0.0 mm
06:35 PM 76.4°F24.7°C 41.6°F5.3°C 29% 4.1 mph S6.6 kmh S 13.0 mph20.9 kmh 29.77 in1008.1 mb 0.00 in0.0 mm 0.00 in0.0 mm 0.00 in0.0 mm
06:40 PM 76.4°F24.7°C 41.6°F5.3°C 29% 3.9 mph SSE6.3 kmh SSE 10.8 mph17.4 kmh 29.77 in1008.1 mb 0.00 in0.0 mm 0.00 in0.0 mm 0.00 in0.0 mm
06:45 PM 75.9°F24.4°C 42.0°F5.6°C 30% 3.7 mph S6.0 kmh S 10.8 mph17.4 kmh 29.77 in1008.1 mb 0.00 in0.0 mm 0.00 in0.0 mm 0.00 in0.0 mm
06:50 PM 75.5°F24.2°C 41.7°F5.4°C 30% 6.9 mph WSW11.1 kmh WSW 9.8 mph15.8 kmh 29.77 in1008.1 mb 0.00 in0.0 mm 0.00 in0.0 mm 0.00 in0.0 mm
06:55 PM 75.2°F24.0°C 42.3°F5.7°C 31% 4.2 mph SW6.8 kmh SW 9.8 mph15.8 kmh 29.77 in1008.1 mb 0.00 in0.0 mm 0.00 in0.0 mm 0.00 in0.0 mm
07:00 PM 75.0°F23.9°C 42.1°F5.6°C 31% 4.7 mph S7.6 kmh S 7.2 mph11.6 kmh 29.77 in1008.1 mb 0.00 in0.0 mm 0.00 in0.0 mm 0.00 in0.0 mm
07:05 PM 74.8°F23.8°C 41.9°F5.5°C 31% 4.7 mph SSW7.6 kmh SSW 8.0 mph12.9 kmh 29.77 in1008.1 mb 0.00 in0.0 mm 0.00 in0.0 mm 0.00 in0.0 mm
07:11 PM 74.5°F23.6°C 41.7°F5.4°C 31% 5.4 mph SW8.7 kmh SW 9.4 mph15.1 kmh 29.74 in1007.1 mb 0.00 in0.0 mm 0.00 in0.0 mm 0.00 in0.0 mm
07:16 PM 74.6°F23.7°C 41.7°F5.4°C 31% 6.5 mph SSW10.5 kmh SSW 9.4 mph15.1 kmh 29.74 in1007.1 mb 0.00 in0.0 mm 0.00 in0.0 mm 0.00 in0.0 mm
07:21 PM 74.6°F23.7°C 42.6°F5.9°C 32% 7.0 mph WSW11.3 kmh WSW 10.8 mph17.4 kmh 29.74 in1007.1 mb 0.00 in0.0 mm 0.00 in0.0 mm 0.00 in0.0 mm
07:26 PM 74.5°F23.6°C 42.5°F5.8°C 32% 6.0 mph SW9.7 kmh SW 10.8 mph17.4 kmh 29.74 in1007.1 mb 0.00 in0.0 mm 0.00 in0.0 mm 0.00 in0.0 mm
07:31 PM 74.3°F23.5°C 42.3°F5.7°C 32% 7.2 mph SW11.6 kmh SW 9.8 mph15.8 kmh 29.74 in1007.1 mb 0.00 in0.0 mm 0.00 in0.0 mm 0.00 in0.0 mm
07:36 PM 74.3°F23.5°C 42.3°F5.7°C 32% 6.0 mph SSW9.7 kmh SSW 9.8 mph15.8 kmh 29.74 in1007.1 mb 0.00 in0.0 mm 0.00 in0.0 mm 0.00 in0.0 mm
07:41 PM 73.9°F23.3°C 42.0°F5.6°C 32% 6.5 mph SSW10.5 kmh SSW 8.6 mph13.8 kmh 29.74 in1007.1 mb 0.00 in0.0 mm 0.00 in0.0 mm 0.00 in0.0 mm
07:46 PM 73.7°F23.2°C 41.8°F5.4°C 32% 6.6 mph SW10.6 kmh SW 9.0 mph14.5 kmh 29.74 in1007.1 mb 0.00 in0.0 mm 0.00 in0.0 mm 0.00 in0.0 mm
07:52 PM 73.6°F23.1°C 41.7°F5.4°C 32% 6.7 mph SW10.8 kmh SW 9.0 mph14.5 kmh 29.74 in1007.1 mb 0.00 in0.0 mm 0.00 in0.0 mm 0.00 in0.0 mm
07:57 PM 73.7°F23.2°C 41.8°F5.4°C 32% 6.6 mph SW10.6 kmh SW 9.0 mph14.5 kmh 29.74 in1007.1 mb 0.00 in0.0 mm 0.00 in0.0 mm 0.00 in0.0 mm
08:02 PM 73.7°F23.2°C 41.8°F5.4°C 32% 6.5 mph SW10.5 kmh SW 9.4 mph15.1 kmh 29.74 in1007.1 mb 0.00 in0.0 mm 0.00 in0.0 mm 0.00 in0.0 mm
08:07 PM 73.7°F23.2°C 41.8°F5.4°C 32% 6.3 mph SW10.1 kmh SW 9.4 mph15.1 kmh 29.77 in1008.1 mb 0.00 in0.0 mm 0.00 in0.0 mm 0.00 in0.0 mm
08:12 PM 73.6°F23.1°C 41.7°F5.4°C 32% 5.8 mph SSW9.3 kmh SSW 9.4 mph15.1 kmh 29.77 in1008.1 mb 0.00 in0.0 mm 0.00 in0.0 mm 0.00 in0.0 mm
08:17 PM 73.6°F23.1°C 41.7°F5.4°C 32% 6.9 mph SSW11.1 kmh SSW 9.4 mph15.1 kmh 29.77 in1008.1 mb 0.00 in0.0 mm 0.00 in0.0 mm 0.00 in0.0 mm
08:22 PM 73.4°F23.0°C 41.5°F5.3°C 32% 5.6 mph SSW9.0 kmh SSW 9.4 mph15.1 kmh 29.74 in1007.1 mb 0.00 in0.0 mm 0.00 in0.0 mm 0.00 in0.0 mm
08:27 PM 73.0°F22.8°C 42.0°F5.6°C 33% 6.6 mph SW10.6 kmh SW 8.6 mph13.8 kmh 29.74 in1007.1 mb 0.00 in0.0 mm 0.00 in0.0 mm 0.00 in0.0 mm
08:32 PM 72.7°F22.6°C 41.7°F5.4°C 33% 5.4 mph SW8.7 kmh SW 9.8 mph15.8 kmh 29.74 in1007.1 mb 0.00 in0.0 mm 0.00 in0.0 mm 0.00 in0.0 mm
08:37 PM 72.5°F22.5°C 41.5°F5.3°C 33% 5.5 mph SW8.9 kmh SW 9.8 mph15.8 kmh 29.77 in1008.1 mb 0.00 in0.0 mm 0.00 in0.0 mm 0.00 in0.0 mm
08:42 PM 72.3°F22.4°C 42.1°F5.6°C 34% 6.4 mph SW10.3 kmh SW 12.6 mph20.3 kmh 29.77 in1008.1 mb 0.00 in0.0 mm 0.00 in0.0 mm 0.00 in0.0 mm
08:47 PM 72.1°F22.3°C 42.0°F5.6°C 34% 7.0 mph SW11.3 kmh SW 12.6 mph20.3 kmh 29.77 in1008.1 mb 0.00 in0.0 mm 0.00 in0.0 mm 0.00 in0.0 mm
08:52 PM 72.3°F22.4°C 42.1°F5.6°C 34% 7.5 mph SW12.1 kmh SW 9.8 mph15.8 kmh 29.77 in1008.1 mb 0.00 in0.0 mm 0.00 in0.0 mm 0.00 in0.0 mm
08:57 PM 72.5°F22.5°C 42.3°F5.7°C 34% 5.6 mph SW9.0 kmh SW 9.8 mph15.8 kmh 29.77 in1008.1 mb 0.00 in0.0 mm 0.00 in0.0 mm 0.00 in0.0 mm
09:03 PM 72.5°F22.5°C 42.3°F5.7°C 34% 5.7 mph SW9.2 kmh SW 11.2 mph18.0 kmh 29.77 in1008.1 mb 0.00 in0.0 mm 0.00 in0.0 mm 0.00 in0.0 mm
09:08 PM 72.5°F22.5°C 42.3°F5.7°C 34% 6.1 mph WSW9.8 kmh WSW 11.2 mph18.0 kmh 29.77 in1008.1 mb 0.00 in0.0 mm 0.00 in0.0 mm 0.00 in0.0 mm
09:13 PM 72.3°F22.4°C 42.1°F5.6°C 34% 7.2 mph SSW11.6 kmh SSW 9.8 mph15.8 kmh 29.77 in1008.1 mb 0.00 in0.0 mm 0.00 in0.0 mm 0.00 in0.0 mm
09:18 PM 72.3°F22.4°C 42.1°F5.6°C 34% 7.7 mph SW12.4 kmh SW 9.8 mph15.8 kmh 29.77 in1008.1 mb 0.00 in0.0 mm 0.00 in0.0 mm 0.00 in0.0 mm
09:23 PM 72.7°F22.6°C 42.5°F5.8°C 34% 8.8 mph WSW14.2 kmh WSW 13.0 mph20.9 kmh 29.74 in1007.1 mb 0.00 in0.0 mm 0.00 in0.0 mm 0.00 in0.0 mm
09:29 PM 72.5°F22.5°C 42.3°F5.7°C 34% 6.4 mph SW10.3 kmh SW 14.4 mph23.2 kmh 29.74 in1007.1 mb 0.00 in0.0 mm 0.00 in0.0 mm 0.00 in0.0 mm
09:33 PM 72.5°F22.5°C 42.3°F5.7°C 34% 6.7 mph SW10.8 kmh SW 14.4 mph23.2 kmh 29.74 in1007.1 mb 0.00 in0.0 mm 0.00 in0.0 mm 0.00 in0.0 mm
09:39 PM 72.3°F22.4°C 42.1°F5.6°C 34% 6.5 mph SW10.5 kmh SW 12.0 mph19.3 kmh 29.74 in1007.1 mb 0.00 in0.0 mm 0.00 in0.0 mm 0.00 in0.0 mm
09:44 PM 72.5°F22.5°C 42.3°F5.7°C 34% 8.2 mph SW13.2 kmh SW 15.6 mph25.1 kmh 29.74 in1007.1 mb 0.00 in0.0 mm 0.00 in0.0 mm 0.00 in0.0 mm
09:49 PM 72.7°F22.6°C 42.5°F5.8°C 34% 8.0 mph WSW12.9 kmh WSW 15.6 mph25.1 kmh 29.74 in1007.1 mb 0.00 in0.0 mm 0.00 in0.0 mm 0.00 in0.0 mm
09:56 PM 72.7°F22.6°C 42.5°F5.8°C 34% 7.8 mph SW12.6 kmh SW 14.4 mph23.2 kmh 29.74 in1007.1 mb 0.00 in0.0 mm 0.00 in0.0 mm 0.00 in0.0 mm
10:01 PM 72.7°F22.6°C 42.5°F5.8°C 34% 6.9 mph SW11.1 kmh SW 12.6 mph20.3 kmh 29.74 in1007.1 mb 0.00 in0.0 mm 0.00 in0.0 mm 0.00 in0.0 mm
10:06 PM 72.7°F22.6°C 42.5°F5.8°C 34% 6.8 mph SW10.9 kmh SW 11.6 mph18.7 kmh 29.74 in1007.1 mb 0.00 in0.0 mm 0.00 in0.0 mm 0.00 in0.0 mm
10:11 PM 72.5°F22.5°C 42.3°F5.7°C 34% 6.4 mph SW10.3 kmh SW 11.6 mph18.7 kmh 29.74 in1007.1 mb 0.00 in0.0 mm 0.00 in0.0 mm 0.00 in0.0 mm
10:16 PM 72.3°F22.4°C 42.1°F5.6°C 34% 5.7 mph SW9.2 kmh SW 9.4 mph15.1 kmh 29.74 in1007.1 mb 0.00 in0.0 mm 0.00 in0.0 mm 0.00 in0.0 mm
10:21 PM 71.9°F22.2°C 41.8°F5.4°C 34% 6.2 mph SW10.0 kmh SW 8.6 mph13.8 kmh 29.74 in1007.1 mb 0.00 in0.0 mm 0.00 in0.0 mm 0.00 in0.0 mm
10:26 PM 71.8°F22.1°C 41.7°F5.4°C 34% 5.8 mph SSW9.3 kmh SSW 8.0 mph12.9 kmh 29.74 in1007.1 mb 0.00 in0.0 mm 0.00 in0.0 mm 0.00 in0.0 mm
10:31 PM 71.8°F22.1°C 41.7°F5.4°C 34% 5.2 mph SW8.4 kmh SW 9.0 mph14.5 kmh 29.74 in1007.1 mb 0.00 in0.0 mm 0.00 in0.0 mm 0.00 in0.0 mm
10:36 PM 71.8°F22.1°C 41.7°F5.4°C 34% 8.1 mph SSW13.0 kmh SSW 11.2 mph18.0 kmh 29.74 in1007.1 mb 0.00 in0.0 mm 0.00 in0.0 mm 0.00 in0.0 mm
10:41 PM 71.6°F22.0°C 41.5°F5.3°C 34% 5.7 mph SW9.2 kmh SW 11.2 mph18.0 kmh 29.74 in1007.1 mb 0.00 in0.0 mm 0.00 in0.0 mm 0.00 in0.0 mm
10:47 PM 71.8°F22.1°C 42.5°F5.8°C 35% 7.2 mph SW11.6 kmh SW 12.0 mph19.3 kmh 29.74 in1007.1 mb 0.00 in0.0 mm 0.00 in0.0 mm 0.00 in0.0 mm
10:52 PM 71.6°F22.0°C 42.3°F5.7°C 35% 7.6 mph WSW12.2 kmh WSW 13.0 mph20.9 kmh 29.74 in1007.1 mb 0.00 in0.0 mm 0.00 in0.0 mm 0.00 in0.0 mm
10:58 PM 71.4°F21.9°C 42.1°F5.6°C 35% 6.9 mph WSW11.1 kmh WSW 13.0 mph20.9 kmh 29.74 in1007.1 mb 0.00 in0.0 mm 0.00 in0.0 mm 0.00 in0.0 mm
11:03 PM 71.4°F21.9°C 42.1°F5.6°C 35% 5.9 mph WSW9.5 kmh WSW 10.8 mph17.4 kmh 29.74 in1007.1 mb 0.00 in0.0 mm 0.00 in0.0 mm 0.00 in0.0 mm
11:08 PM 71.2°F21.8°C 42.7°F5.9°C 36% 6.4 mph S10.3 kmh S 10.8 mph17.4 kmh 29.74 in1007.1 mb 0.00 in0.0 mm 0.00 in0.0 mm 0.00 in0.0 mm
11:13 PM 71.0°F21.7°C 42.5°F5.8°C 36% 6.0 mph SW9.7 kmh SW 10.8 mph17.4 kmh 29.74 in1007.1 mb 0.00 in0.0 mm 0.00 in0.0 mm 0.00 in0.0 mm
11:19 PM 70.9°F21.6°C 42.4°F5.8°C 36% 5.3 mph S8.5 kmh S 8.6 mph13.8 kmh 29.74 in1007.1 mb 0.00 in0.0 mm 0.00 in0.0 mm 0.00 in0.0 mm
11:23 PM 70.7°F21.5°C 42.2°F5.7°C 36% 6.4 mph WSW10.3 kmh WSW 11.6 mph18.7 kmh 29.71 in1006.1 mb 0.00 in0.0 mm 0.00 in0.0 mm 0.00 in0.0 mm
11:29 PM 70.7°F21.5°C 42.2°F5.7°C 36% 8.3 mph SW13.4 kmh SW 11.6 mph18.7 kmh 29.71 in1006.1 mb 0.00 in0.0 mm 0.00 in0.0 mm 0.00 in0.0 mm
11:34 PM 70.5°F21.4°C 42.8°F6.0°C 37% 6.1 mph SW9.8 kmh SW 10.8 mph17.4 kmh 29.71 in1006.1 mb 0.00 in0.0 mm 0.00 in0.0 mm 0.00 in0.0 mm
11:39 PM 70.3°F21.3°C 42.6°F5.9°C 37% 5.7 mph SW9.2 kmh SW 9.4 mph15.1 kmh 29.71 in1006.1 mb 0.00 in0.0 mm 0.00 in0.0 mm 0.00 in0.0 mm
11:44 PM 70.1°F21.2°C 42.4°F5.8°C 37% 5.3 mph S8.5 kmh S 8.0 mph12.9 kmh 29.71 in1006.1 mb 0.00 in0.0 mm 0.00 in0.0 mm 0.00 in0.0 mm
11:49 PM 70.0°F21.1°C 43.0°F6.1°C 38% 6.5 mph SW10.5 kmh SW 11.6 mph18.7 kmh 29.71 in1006.1 mb 0.00 in0.0 mm 0.00 in0.0 mm 0.00 in0.0 mm
11:54 PM 70.1°F21.2°C 43.1°F6.2°C 38% 6.4 mph SW10.3 kmh SW 11.6 mph18.7 kmh 29.71 in1006.1 mb 0.00 in0.0 mm 0.00 in0.0 mm 0.00 in0.0 mm